Location: Yellowknife
(62.4500°N, 114.3500°W)
Time: 21:36:57
(UTC-06:00)

Amateur Radio Satellites - All Passes

Search period start: 26 March 2015 21:06
Search period end: 27 March 2015 21:06
Location: Yellowknife, 62.4500°N, 114.3500°W

Satellite Date Start Highest point End Downlink Frequencies (MHz)
Time Altitude Azimuth
CUTE 1.7 + AOD 2 26 Mar 21:15:12 21:19:28 80° 253° (WSW) 21:23:47 437.475
GOMX 1 26 Mar 21:16:10 21:20:35 71° 255° (WSW) 21:24:48 467.674
Cubesat XI-IV 26 Mar 21:18:09 21:19:47 11° 287° (WNW) 21:21:10 437.490
AIST 2 26 Mar 21:18:18 21:21:54 26° 232° (SW) 21:25:24 435.215
CUTE-I 26 Mar 21:18:56 21:20:31 11° 287° (WNW) 21:21:52 437.470
DOVE 4 26 Mar 21:19:27 21:23:46 87° 257° (WSW) 21:27:57 437.250
CINEMA 3 26 Mar 21:21:24 21:25:32 64° 67° (ENE) 21:29:41 145.822/145.860
UKube-1 26 Mar 21:23:47 21:27:43 35° 56° (NE) 21:31:41 .
PCSat 26 Mar 21:24:47 21:30:09 53° 4° (N) 21:35:30 145.827
PRISM 26 Mar 21:27:32 21:31:43 58° 296° (WNW) 21:35:50 437.425
DX 1 26 Mar 21:29:45 21:33:49 39° 57° (ENE) 21:37:54 434.975-435.025
AUBIESAT-1 26 Mar 21:32:15 21:36:31 34° 315° (NW) 21:40:52 437.475
CUSAT 1 26 Mar 21:32:23 21:32:32 10° 89° (E) 21:32:46 437.405
50 SAT 26 Mar 21:36:14 21:39:21 23° 52° (NE) 21:42:33 437.505
RS-15 26 Mar 21:43:46 21:54:17 58° 129° (SE) 22:05:11 29.354- 29.394
YUBILEINY 26 Mar 21:46:16 21:52:49 22° 14° (NNE) 21:59:26 435.215
SEEDS 26 Mar 21:49:14 21:53:22 51° 259° (W) 21:57:34 437.485
DELFI C3 26 Mar 21:49:38 21:53:43 69° 67° (ENE) 21:57:49 145.870
HUMSAT D 26 Mar 21:49:50 21:53:35 35° 58° (ENE) 21:57:25 437.325/437.525
AAUSAT CUBESAT 2 26 Mar 21:51:31 21:55:41 61° 257° (WSW) 21:59:54 437.432
BRITE-PL 26 Mar 21:52:51 21:56:59 31° 266° (W) 22:00:51 437.365/2234.400
CUBEBUG 2 26 Mar 21:53:33 21:57:42 73° 69° (ENE) 22:01:54 437.445
Oscar 11 26 Mar 21:53:59 21:58:20 87° 71° (ENE) 22:02:44 145.826/435.025
M-CUBED/EXP-1 PRIME 26 Mar 21:54:12 21:58:09 27° 321° (NW) 22:02:09 437.505
UWE-3 26 Mar 21:54:55 21:59:02 66° 67° (ENE) 22:03:13 435.000/436.395/437.385
VELOX 1 26 Mar 21:57:34 22:01:36 35° 56° (NE) 22:05:41 145.980
HO-68 26 Mar 21:58:01 22:04:56 48° 261° (W) 22:11:54 435.675
FUNcube-1 26 Mar 21:58:40 22:02:46 61° 66° (ENE) 22:06:55 145.935
GONETS M04 26 Mar 21:59:05 22:07:50 76° 291° (WNW) 22:16:41
AISAT 26 Mar 22:00:48 22:04:54 37° 57° (ENE) 22:09:01 437.250
DANDE 26 Mar 22:01:37 22:03:22 16° 94° (E) 22:05:05 436.750
CUBEBUG 1 26 Mar 22:07:05 22:10:44 26° 51° (NE) 22:14:24 437.445
STRAND 1 26 Mar 22:09:12 22:14:12 52° 301° (WNW) 22:19:10 437.568
ZACube-1 26 Mar 22:10:19 22:14:28 74° 69° (ENE) 22:18:41 437.345
COMPASS 1 26 Mar 22:16:38 22:20:35 37° 264° (W) 22:24:33 437.405
ESTCUBE 1 26 Mar 22:20:12 22:24:18 34° 55° (NE) 22:28:25 437.505/2401.250
SPROUT 26 Mar 22:29:00 22:31:49 18° 44° (NE) 22:34:42 437.525
TISAT 1 26 Mar 22:29:55 22:32:32 16° 43° (NE) 22:35:13 437.305
CUBESAT XI-V 26 Mar 22:34:57 22:38:42 24° 312° (NW) 22:42:23 437.345
CANX-2 26 Mar 22:38:17 22:41:34 21° 273° (W) 22:44:49 2200.000
SO-50 26 Mar 22:40:14 22:44:57 63° 146° (SE) 22:49:49 436.795
ITUPSAT 1 26 Mar 22:42:16 22:44:04 12° 26° (NNE) 22:45:56 437.325
CUTE 1.7 + AOD 2 26 Mar 22:53:10 22:56:08 18° 276° (W) 22:59:02 437.475
GOMX 1 26 Mar 22:56:50 22:59:33 16° 277° (W) 23:02:07 467.674
DOVE 4 26 Mar 22:59:11 23:02:14 18° 274° (W) 23:05:10 437.250
UKube-1 26 Mar 22:59:27 23:03:45 57° 257° (WSW) 23:08:04 .
CINEMA 3 26 Mar 22:59:35 23:03:09 26° 269° (W) 23:06:42 145.822/145.860
PRISM 26 Mar 23:03:41 23:06:31 17° 317° (NW) 23:09:16 437.425
DX 1 26 Mar 23:05:46 23:10:02 50° 258° (WSW) 23:14:19 434.975-435.025
AUBIESAT-1 26 Mar 23:07:25 23:10:20 16° 337° (NNW) 23:13:15 437.475
PCSat 26 Mar 23:08:38 23:14:06 77° 27° (NNE) 23:19:35 145.827
50 SAT 26 Mar 23:09:58 23:13:55 82° 252° (WSW) 23:17:55 437.505
CUSAT 1 26 Mar 23:12:13 23:14:52 69° 290° (WNW) 23:17:32 437.405
QB50P2 26 Mar 23:14:55 23:16:27 12° 79° (E) 23:18:08 145.880/145.840
UNISAT 6 26 Mar 23:21:51 23:25:17 22° 87° (E) 23:28:51 437.425
HUMSAT D 26 Mar 23:25:18 23:29:19 50° 259° (W) 23:33:23 437.325/437.525
DELFI C3 26 Mar 23:25:54 23:29:18 25° 270° (W) 23:32:43 145.870
SEEDS 26 Mar 23:28:43 23:30:17 12° 282° (WNW) 23:31:43 437.485
M-CUBED/EXP-1 PRIME 26 Mar 23:29:20 23:31:51 14° 343° (NNW) 23:34:22 437.505
SWISSCUBE 26 Mar 23:29:22 23:32:34 18° 39° (NE) 23:35:51 437.505
AAUSAT CUBESAT 2 26 Mar 23:30:04 23:32:16 14° 279° (W) 23:34:22 437.432
CUBEBUG 2 26 Mar 23:31:30 23:34:54 23° 271° (W) 23:38:18 437.445
Oscar 11 26 Mar 23:31:47 23:35:09 21° 273° (W) 23:38:27 145.826/435.025
UWE-3 26 Mar 23:32:28 23:36:00 26° 269° (W) 23:39:32 435.000/436.395/437.385
BEESAT 26 Mar 23:32:53 23:36:04 18° 39° (NE) 23:39:20 436.000
TIGRISAT 26 Mar 23:33:25 23:37:06 25° 90° (E) 23:40:55 435.000
VELOX 1 26 Mar 23:33:40 23:38:04 57° 257° (WSW) 23:42:29 145.980
FUNcube-1 26 Mar 23:35:50 23:39:27 28° 268° (W) 23:43:06 145.935
AISAT 26 Mar 23:37:05 23:41:27 53° 258° (WSW) 23:45:50 437.250
CUBEBUG 1 26 Mar 23:42:19 23:46:45 83° 252° (WSW) 23:51:11 437.445
POPSAT HIP 1 26 Mar 23:43:29 23:46:26 18° 86° (E) 23:49:27 437.405
DANDE 26 Mar 23:43:46 23:46:26 42° 295° (WNW) 23:48:58 436.750
YUBILEINY 26 Mar 23:44:46 23:52:51 37° 45° (NE) 00:00:56 435.215
ZACube-1 26 Mar 23:47:57 23:51:21 23° 271° (W) 23:54:44 437.345
STRAND 1 26 Mar 23:48:55 23:52:32 20° 323° (NW) 23:56:05 437.568
HO-68 26 Mar 23:50:32 23:54:45 16° 287° (WNW) 23:58:43 435.675
NANOSAT C BR1 26 Mar 23:55:11 23:58:28 22° 89° (E) 00:01:50 145.865
RS-15 26 Mar 23:55:14 00:06:17 87° 339° (NNW) 00:17:49 29.354- 29.394
ESTCUBE 1 26 Mar 23:56:27 00:01:00 63° 256° (WSW) 00:05:33 437.505/2401.250
POLYITAN 1 26 Mar 23:56:39 00:00:01 23° 89° (E) 00:03:27 437.675
GONETS M04 26 Mar 23:58:28 00:06:18 34° 319° (NW) 00:14:07
BUGSAT 1 26 Mar 23:58:39 00:01:26 18° 86° (E) 00:04:18 437.445
ANTELSAT 27 Mar 00:01:56 00:06:10 39° 97° (E) 00:10:29 437.575/2403.000
SPROUT 27 Mar 00:03:00 00:07:14 58° 65° (ENE) 00:11:29 437.525
TISAT 1 27 Mar 00:03:30 00:07:38 54° 64° (ENE) 00:11:46 437.305
CUBESAT XI-V 27 Mar 00:14:07 00:14:45 10° 335° (NNW) 00:15:17 437.345
ITUPSAT 1 27 Mar 00:16:36 00:20:39 28° 49° (NE) 00:24:45 437.325
SO-50 27 Mar 00:20:44 00:25:35 74° 349° (N) 00:30:32 436.795
KKS-1 27 Mar 00:28:55 00:31:11 14° 36° (NE) 00:33:32 437.445
QB50P1 27 Mar 00:35:30 00:39:32 41° 98° (E) 00:43:34 145.935-145.965
UKube-1 27 Mar 00:38:46 00:40:55 13° 279° (W) 00:42:56 .
DUCHIFAT 1 27 Mar 00:39:04 00:43:07 43° 99° (E) 00:47:09 145.980
AUBIESAT-1 27 Mar 00:41:48 00:43:39 12° 359° (N) 00:45:32 437.475
DX 1 27 Mar 00:45:49 00:47:25 12° 281° (W) 00:48:52 434.975-435.025
50 SAT 27 Mar 00:46:55 00:49:32 17° 275° (W) 00:52:06 437.505
QB50P2 27 Mar 00:49:14 00:53:25 53° 101° (ESE) 00:57:35 145.880/145.840
PCSat 27 Mar 00:52:12 00:57:23 45° 232° (SW) 01:02:31 145.827
UNISAT 6 27 Mar 00:58:12 01:02:42 89° 289° (WNW) 01:07:18 437.425
M-CUBED/EXP-1 PRIME 27 Mar 01:03:16 01:05:11 13° 6° (N) 01:07:09 437.505
SWISSCUBE 27 Mar 01:04:56 01:09:36 51° 61° (ENE) 01:14:18 437.505
HUMSAT D 27 Mar 01:05:03 01:06:12 11° 282° (WNW) 01:07:11 437.325/437.525
STARS 27 Mar 01:06:59 01:09:44 17° 41° (NE) 01:12:33 437.465
BEESAT 27 Mar 01:08:27 01:13:06 51° 60° (ENE) 01:17:47 436.000
TIGRISAT 27 Mar 01:09:53 01:14:22 77° 292° (WNW) 01:18:55 435.000
VELOX 1 27 Mar 01:13:23 01:15:40 13° 280° (W) 01:17:50 145.980
AISAT 27 Mar 01:17:09 01:19:09 13° 281° (W) 01:21:01 437.250
POPSAT HIP 1 27 Mar 01:18:45 01:23:01 84° 108° (ESE) 01:27:15 437.405
CUBEBUG 1 27 Mar 01:20:36 01:23:49 19° 274° (W) 01:26:58 437.445
Oscar 19 27 Mar 01:21:01 01:22:32 11° 74° (ENE) 01:24:15 437.125/150
STRAND 1 27 Mar 01:28:52 01:30:03 11° 347° (NNW) 01:31:11 437.568
NANOSAT C BR1 27 Mar 01:30:38 01:34:52 81° 292° (WNW) 01:39:07 145.865
POLYITAN 1 27 Mar 01:32:13 01:36:28 78° 291° (WNW) 01:40:43 437.675
BUGSAT 1 27 Mar 01:33:29 01:37:35 87° 108° (ESE) 01:41:38 437.445
ESTCUBE 1 27 Mar 01:36:05 01:38:50 15° 279° (W) 01:41:29 437.505/2401.250
ANTELSAT 27 Mar 01:38:47 01:43:07 50° 298° (WNW) 01:47:33 437.575/2403.000
SPROUT 27 Mar 01:39:46 01:43:37 31° 266° (W) 01:47:28 437.525
TISAT 1 27 Mar 01:39:49 01:43:40 32° 265° (W) 01:47:30 437.305
YUBILEINY 27 Mar 01:42:08 01:51:04 84° 72° (ENE) 01:59:56 435.215
MOZHAYETS 4 27 Mar 01:45:45 01:46:16 10° 25° (NNE) 01:46:51
ITUPSAT 1 27 Mar 01:53:18 01:58:09 89° 254° (WSW) 02:03:02 437.325
GONETS M04 27 Mar 02:00:05 02:06:29 21° 350° (N) 02:12:54
SO-50 27 Mar 02:01:34 02:06:28 74° 12° (NNE) 02:11:27 436.795
KKS-1 27 Mar 02:02:45 02:06:53 39° 57° (ENE) 02:11:02 437.445
RS-15 27 Mar 02:08:10 02:19:21 82° 11° (N) 02:31:03 29.354- 29.394
QB50P1 27 Mar 02:11:27 02:15:29 43° 299° (WNW) 02:19:30 145.935-145.965
AUBIESAT-1 27 Mar 02:14:16 02:16:58 16° 22° (NNE) 02:19:48 437.475
DUCHIFAT 1 27 Mar 02:15:01 02:19:00 41° 300° (WNW) 02:22:58 145.980
ITAMSAT 1 27 Mar 02:19:52 02:21:56 12° 76° (ENE) 02:24:12 435.822/435.867
QB50P2 27 Mar 02:25:21 02:29:15 35° 303° (WNW) 02:33:06 145.880/145.840
UNISAT 6 27 Mar 02:35:27 02:39:06 25° 310° (NW) 02:42:46 437.425
M-CUBED/EXP-1 PRIME 27 Mar 02:35:35 02:38:39 19° 29° (NNE) 02:41:54 437.505
PCSat 27 Mar 02:36:54 02:39:41 14° 253° (WSW) 02:42:17 145.827
STARS 27 Mar 02:41:11 02:45:26 52° 62° (ENE) 02:49:44 437.465
SWISSCUBE 27 Mar 02:43:03 02:47:38 42° 263° (W) 02:52:13 437.505
BEESAT 27 Mar 02:46:32 02:51:06 41° 262° (W) 02:55:41 436.000
TIGRISAT 27 Mar 02:47:10 02:50:37 22° 312° (NW) 02:54:04 435.000
Gurwin Techsat 1B 27 Mar 02:51:38 02:55:09 18° 81° (E) 02:58:47 435.225
POPSAT HIP 1 27 Mar 02:55:04 02:58:32 25° 309° (NW) 03:01:58 437.405
ISS 27 Mar 02:57:02 02:57:55 11° 165° (SSE) 02:58:51 145.825
Oscar 19 27 Mar 02:58:28 03:03:23 43° 97° (E) 03:08:21 437.125/150
JAS-2 27 Mar 03:02:59 03:03:40 10° 56° (ENE) 03:04:45 435.910
STRAND 1 27 Mar 03:06:15 03:07:13 11° 12° (NNE) 03:08:13 437.568
NANOSAT C BR1 27 Mar 03:07:00 03:10:15 22° 312° (NW) 03:13:28 145.865
POLYITAN 1 27 Mar 03:08:41 03:11:54 21° 312° (NW) 03:15:04 437.675
BUGSAT 1 27 Mar 03:09:26 03:12:42 23° 310° (NW) 03:15:52 437.445
ANTELSAT 27 Mar 03:16:19 03:19:09 17° 319° (NW) 03:21:55 437.575/2403.000
MOZHAYETS 4 27 Mar 03:18:25 03:22:06 24° 48° (NE) 03:25:51
ITUPSAT 1 27 Mar 03:32:54 03:36:44 23° 273° (W) 03:40:32 437.325
KKS-1 27 Mar 03:39:09 03:43:30 50° 259° (W) 03:47:51 437.445
YUBILEINY 27 Mar 03:39:19 03:47:18 39° 279° (W) 03:55:07 435.215
SO-50 27 Mar 03:42:13 03:47:06 62° 215° (SW) 03:52:00 436.795
AUBIESAT-1 27 Mar 03:46:51 03:50:44 34° 44° (NE) 03:54:54 437.475
QB50P1 27 Mar 03:48:15 03:50:30 14° 321° (NW) 03:52:42 145.935-145.965
DUCHIFAT 1 27 Mar 03:51:48 03:53:58 14° 321° (NW) 03:56:02 145.980
HORYU 2 27 Mar 03:55:40 03:58:10 15° 82° (E) 04:00:48 437.375
ITAMSAT 1 27 Mar 03:57:51 04:02:53 47° 99° (E) 04:07:54 435.822/435.867
GONETS M04 27 Mar 04:00:21 04:07:11 24° 23° (NNE) 04:14:07
QB50P2 27 Mar 04:02:23 04:04:10 12° 324° (NW) 04:05:51 145.880/145.840
AIST 1 27 Mar 04:07:20 04:09:29 14° 78° (ENE) 04:11:46
M-CUBED/EXP-1 PRIME 27 Mar 04:08:36 04:12:41 46° 51° (NE) 04:17:06 437.505
STARS 27 Mar 04:18:02 04:22:06 36° 264° (W) 04:26:11 437.465
RS-15 27 Mar 04:20:46 04:31:56 72° 220° (SW) 04:43:34 29.354- 29.394
SWISSCUBE 27 Mar 04:26:02 04:26:55 10° 286° (WNW) 04:27:35 437.505
BEESAT 27 Mar 04:29:32 04:30:23 10° 286° (WNW) 04:31:01 436.000
Gurwin Techsat 1B 27 Mar 04:30:56 04:36:15 65° 104° (ESE) 04:41:34 435.225
ISS 27 Mar 04:31:50 04:33:21 13° 185° (S) 04:34:51 145.825
Oscar 19 27 Mar 04:37:55 04:42:56 54° 300° (WNW) 04:47:59 437.125/150
STRAND 1 27 Mar 04:41:14 04:44:42 19° 36° (NE) 04:48:13 437.568
JAS-2 27 Mar 04:44:53 04:51:41 31° 83° (E) 04:58:25 435.910
AO-7 27 Mar 04:45:16 04:52:15 30° 87° (E) 04:59:22 29.400- 29.500
MOZHAYETS 4 27 Mar 04:54:10 04:58:50 81° 68° (ENE) 05:03:32
CUBESAT XI-V 27 Mar 04:58:00 05:01:38 23° 47° (NE) 05:05:19 437.345
PRISM 27 Mar 05:18:32 05:21:58 24° 50° (NE) 05:25:26 437.425
KKS-1 27 Mar 05:19:34 05:21:17 12° 282° (WNW) 05:22:52 437.445
AUBIESAT-1 27 Mar 05:21:06 05:25:19 70° 247° (WSW) 05:29:54 437.475
SO-50 27 Mar 05:23:09 05:26:59 23° 237° (WSW) 05:30:47 436.795
O/OREOS (USA 219) 27 Mar 05:30:40 05:34:19 24° 108° (ESE) 05:38:01 437.305
HORYU 2 27 Mar 05:31:19 05:35:48 62° 104° (ESE) 05:40:17 437.375
ITAMSAT 1 27 Mar 05:37:28 05:42:31 50° 302° (WNW) 05:47:31 435.822/435.867
YUBILEINY 27 Mar 05:37:30 05:41:36 14° 305° (NW) 05:45:23 435.215
AIST 1 27 Mar 05:42:01 05:46:22 60° 99° (E) 05:50:43
M-CUBED/EXP-1 PRIME 27 Mar 05:43:33 05:47:37 46° 253° (WSW) 05:52:02 437.505
GONETS M04 27 Mar 05:58:24 06:06:47 46° 53° (NE) 06:15:14
Cubesat XI-IV 27 Mar 06:01:13 06:01:35 10° 71° (ENE) 06:02:11 437.490
CUTE-I 27 Mar 06:01:53 06:02:11 10° 71° (ENE) 06:02:45 437.470
Gurwin Techsat 1B 27 Mar 06:11:10 06:16:06 39° 306° (NW) 06:21:00 435.225
Oscar 19 27 Mar 06:17:46 06:21:27 20° 322° (NW) 06:25:06 437.125/150
STRAND 1 27 Mar 06:18:02 06:22:58 48° 59° (ENE) 06:27:56 437.568
JAS-2 27 Mar 06:29:54 06:37:52 82° 107° (ESE) 06:45:34 435.910
MOZHAYETS 4 27 Mar 06:32:48 06:36:38 24° 272° (W) 06:40:26
RS-15 27 Mar 06:33:03 06:42:50 35° 248° (WSW) 06:52:47 29.354- 29.394
CUBESAT XI-V 27 Mar 06:33:47 06:38:31 75° 68° (ENE) 06:43:15 437.345
AO-7 27 Mar 06:38:08 06:46:30 78° 112° (ESE) 06:54:50 29.400- 29.500
DANDE 27 Mar 06:45:42 06:46:36 11° 47° (NE) 06:47:37 436.750
PRISM 27 Mar 06:52:48 06:57:03 87° 250° (WSW) 07:01:20 437.425
AUBIESAT-1 27 Mar 06:58:12 07:01:03 17° 270° (W) 07:03:57 437.475
HORYU 2 27 Mar 07:08:14 07:12:18 34° 305° (NW) 07:16:21 437.375
O/OREOS (USA 219) 27 Mar 07:08:37 07:13:16 88° 130° (SE) 07:17:54 437.305
ITAMSAT 1 27 Mar 07:17:27 07:21:07 19° 324° (NW) 07:24:43 435.822/435.867
AIST 1 27 Mar 07:20:22 07:24:21 31° 302° (WNW) 07:28:19
M-CUBED/EXP-1 PRIME 27 Mar 07:22:29 07:23:48 11° 277° (W) 07:24:58 437.505
Cubesat XI-IV 27 Mar 07:38:24 07:43:24 38° 95° (E) 07:48:23 437.490
CUTE-I 27 Mar 07:38:59 07:43:59 38° 95° (E) 07:48:58 437.470
Gurwin Techsat 1B 27 Mar 07:51:39 07:54:56 17° 329° (NNW) 07:58:10 435.225
CUSAT 1 27 Mar 07:53:25 07:56:30 40° 64° (ENE) 08:00:27 437.405
GONETS M04 27 Mar 07:55:39 08:04:28 78° 260° (W) 08:13:18
STRAND 1 27 Mar 07:57:15 08:02:16 48° 260° (W) 08:07:17 437.568
Oscar 19 27 Mar 07:57:55 07:59:08 11° 346° (NNW) 08:00:18 437.125/150
ANTELSAT 27 Mar 08:02:46 08:04:03 11° 31° (NNE) 08:05:24 437.575/2403.000
CUBESAT XI-V 27 Mar 08:12:25 08:16:27 27° 270° (W) 08:20:28 437.345
JAS-2 27 Mar 08:15:09 08:22:30 45° 311° (NW) 08:29:41 435.910
DANDE 27 Mar 08:27:24 08:30:27 57° 68° (ENE) 08:34:19 436.750
PRISM 27 Mar 08:30:05 08:33:12 19° 273° (W) 08:36:15 437.425
AO-7 27 Mar 08:31:11 08:39:04 50° 317° (NW) 08:46:55 29.400- 29.500
QB50P1 27 Mar 08:31:43 08:32:43 11° 32° (NNE) 08:33:47 145.935-145.965
DUCHIFAT 1 27 Mar 08:34:55 08:36:01 11° 33° (NNE) 08:37:13 145.980
QB50P2 27 Mar 08:44:42 08:46:26 12° 36° (NE) 08:48:14 145.880/145.840
HORYU 2 27 Mar 08:45:51 08:47:53 13° 327° (NNW) 08:49:52 437.375
O/OREOS (USA 219) 27 Mar 08:48:53 08:53:11 36° 334° (NNW) 08:57:28 437.305
RS-15 27 Mar 08:49:11 08:51:35 11° 275° (W) 08:53:12 29.354- 29.394
CUTE 1.7 + AOD 2 27 Mar 08:51:34 08:52:32 11° 76° (ENE) 08:53:41 437.475
UNISAT 6 27 Mar 08:56:34 08:59:35 19° 44° (NE) 09:02:41 437.425
ITAMSAT 1 27 Mar 08:57:32 08:58:55 11° 348° (NNW) 09:00:15 435.822/435.867
AIST 1 27 Mar 09:02:19 09:03:30 11° 326° (NW) 09:04:36
GOMX 1 27 Mar 09:07:19 09:09:43 15° 83° (E) 09:12:13 467.674
TIGRISAT 27 Mar 09:07:45 09:10:56 21° 47° (NE) 09:14:15 435.000
DOVE 4 27 Mar 09:08:33 09:10:05 12° 79° (E) 09:11:47 437.250
POPSAT HIP 1 27 Mar 09:12:53 09:15:29 16° 42° (NE) 09:18:09 437.405
HO-68 27 Mar 09:13:04 09:18:44 25° 83° (E) 09:24:31 435.675
Cubesat XI-IV 27 Mar 09:18:31 09:23:50 62° 298° (WNW) 09:29:06 437.490
CUTE-I 27 Mar 09:19:06 09:24:24 62° 298° (WNW) 09:29:39 437.470
SEEDS 27 Mar 09:23:20 09:26:00 16° 83° (E) 09:28:46 437.485
NANOSAT C BR1 27 Mar 09:24:10 09:27:03 18° 45° (NE) 09:30:00 145.865
AAUSAT CUBESAT 2 27 Mar 09:24:53 09:26:53 13° 80° (E) 09:29:00 437.432
BUGSAT 1 27 Mar 09:25:36 09:28:04 16° 43° (NE) 09:30:36 437.445
POLYITAN 1 27 Mar 09:26:00 09:28:58 19° 46° (NE) 09:31:59 437.675
Gurwin Techsat 1B 27 Mar 09:32:00 09:33:02 11° 354° (N) 09:34:04 435.225
Oscar 19 27 Mar 09:35:46 09:36:26 10° 11° (N) 09:37:09 437.125/150
ANTELSAT 27 Mar 09:35:57 09:39:41 30° 53° (NE) 09:43:31 437.575/2403.000
CUSAT 1 27 Mar 09:36:15 09:39:17 31° 261° (W) 09:43:05 437.405
STRAND 1 27 Mar 09:40:26 09:42:51 13° 284° (WNW) 09:45:05 437.568
BRITE-PL 27 Mar 09:45:26 09:49:16 35° 95° (E) 09:53:09 437.365/2234.400
COMPASS 1 27 Mar 09:49:15 09:52:30 21° 87° (E) 09:55:48 437.405
GONETS M04 27 Mar 09:52:56 10:00:12 30° 285° (WNW) 10:07:21
JAS-2 27 Mar 10:00:00 10:05:58 25° 335° (NNW) 10:11:52 435.910
QB50P1 27 Mar 10:03:49 10:07:29 29° 54° (NE) 10:11:11 145.935-145.965
DUCHIFAT 1 27 Mar 10:07:06 10:10:46 30° 55° (NE) 10:14:30 145.980
CANX-2 27 Mar 10:11:08 10:15:14 40° 97° (E) 10:19:19 2200.000
DANDE 27 Mar 10:11:08 10:13:36 20° 264° (W) 10:16:27 436.750
QB50P2 27 Mar 10:17:30 10:21:22 36° 58° (ENE) 10:25:15 145.880/145.840
AO-7 27 Mar 10:23:32 10:30:25 30° 344° (NNW) 10:37:15 29.400- 29.500
CUTE 1.7 + AOD 2 27 Mar 10:25:26 10:29:37 47° 99° (E) 10:33:49 437.475
O/OREOS (USA 219) 27 Mar 10:29:52 10:33:44 25° 358° (N) 10:37:36 437.305
UNISAT 6 27 Mar 10:31:27 10:35:43 64° 66° (ENE) 10:40:05 437.425
ITAMSAT 1 27 Mar 10:34:57 10:36:23 11° 13° (NNE) 10:37:51 435.822/435.867
UKube-1 27 Mar 10:37:12 10:39:18 13° 81° (E) 10:41:32 .
CINEMA 3 27 Mar 10:42:04 10:45:59 34° 95° (E) 10:50:02 145.822/145.860
TIGRISAT 27 Mar 10:42:52 10:47:09 75° 68° (ENE) 10:51:32 435.000
DX 1 27 Mar 10:43:50 10:46:25 16° 83° (E) 10:49:06 434.975-435.025
GOMX 1 27 Mar 10:44:33 10:48:44 70° 106° (ESE) 10:52:59 467.674
DOVE 4 27 Mar 10:44:47 10:48:55 54° 102° (ESE) 10:53:10 437.250
POPSAT HIP 1 27 Mar 10:46:31 10:50:39 54° 64° (ENE) 10:54:47 437.405
DELFI C3 27 Mar 10:53:54 10:57:27 27° 92° (E) 11:01:02 145.870
NANOSAT C BR1 27 Mar 10:58:07 11:02:17 64° 66° (ENE) 11:06:29 145.865
SEEDS 27 Mar 10:58:19 11:02:38 72° 105° (ESE) 11:06:55 437.485
BUGSAT 1 27 Mar 10:58:48 11:02:51 53° 64° (ENE) 11:06:52 437.445
Cubesat XI-IV 27 Mar 10:59:03 11:03:11 23° 320° (NW) 11:07:14 437.490
HUMSAT D 27 Mar 10:59:07 11:01:38 16° 83° (E) 11:04:18 437.325/437.525
AAUSAT CUBESAT 2 27 Mar 10:59:16 11:03:29 58° 102° (ESE) 11:07:42 437.432
CUTE-I 27 Mar 10:59:36 11:03:43 23° 320° (NW) 11:07:45 437.470
POLYITAN 1 27 Mar 11:00:06 11:04:18 68° 67° (ENE) 11:08:31 437.675
HO-68 27 Mar 11:00:36 11:07:50 71° 108° (ESE) 11:15:03 435.675
Oscar 11 27 Mar 11:06:34 11:10:43 40° 97° (E) 11:14:52 145.826/435.025
Gurwin Techsat 1B 27 Mar 11:08:51 11:10:58 13° 19° (NNE) 11:13:09 435.225
CUBEBUG 2 27 Mar 11:10:06 11:14:06 37° 96° (E) 11:18:13 437.445
UWE-3 27 Mar 11:10:10 11:14:04 32° 94° (E) 11:18:04 435.000/436.395/437.385
Oscar 19 27 Mar 11:10:41 11:14:01 18° 35° (NE) 11:17:27 437.125/150
ANTELSAT 27 Mar 11:11:56 11:16:14 69° 255° (WSW) 11:20:38 437.575/2403.000
FUNcube-1 27 Mar 11:12:20 11:16:06 29° 93° (E) 11:19:58 145.935
VELOX 1 27 Mar 11:14:06 11:16:38 15° 82° (E) 11:19:16 145.980
AISAT 27 Mar 11:17:34 11:20:19 16° 83° (E) 11:23:10 437.250
CUBEBUG 1 27 Mar 11:22:53 11:23:17 10° 76° (ENE) 11:23:52 437.445
BRITE-PL 27 Mar 11:24:01 11:28:03 48° 297° (WNW) 11:32:04 437.365/2234.400
ZACube-1 27 Mar 11:24:12 11:28:10 35° 95° (E) 11:32:14 437.345
COMPASS 1 27 Mar 11:24:29 11:28:47 85° 286° (WNW) 11:33:03 437.405
QB50P1 27 Mar 11:38:56 11:43:09 66° 255° (WSW) 11:47:22 145.935-145.965
ESTCUBE 1 27 Mar 11:39:00 11:41:40 15° 81° (E) 11:44:27 437.505/2401.250
DUCHIFAT 1 27 Mar 11:42:13 11:46:25 64° 256° (WSW) 11:50:37 145.980
JAS-2 27 Mar 11:43:36 11:48:43 20° 1° (N) 11:53:54 435.910
CANX-2 27 Mar 11:47:07 11:51:16 46° 298° (WNW) 11:55:24 2200.000
QB50P2 27 Mar 11:53:03 11:57:12 52° 259° (WSW) 12:01:22 145.880/145.840
CUTE 1.7 + AOD 2 27 Mar 12:01:30 12:05:33 39° 300° (WNW) 12:09:34 437.475
BEESAT 2 27 Mar 12:06:37 12:09:07 16° 120° (ESE) 12:11:43 435.950
UNISAT 6 27 Mar 12:09:10 12:12:55 28° 268° (W) 12:16:42 437.425
O/OREOS (USA 219) 27 Mar 12:10:08 12:14:20 33° 23° (NNE) 12:18:31 437.305
ITAMSAT 1 27 Mar 12:10:31 12:14:11 20° 37° (NE) 12:17:56 435.822/435.867
50 SAT 27 Mar 12:12:00 12:15:45 36° 97° (E) 12:19:31 437.505
UKube-1 27 Mar 12:12:08 12:16:27 58° 104° (ESE) 12:20:44 .
AO-7 27 Mar 12:14:28 12:21:11 29° 11° (N) 12:27:56 29.400- 29.500
DX 1 27 Mar 12:19:11 12:23:33 68° 105° (ESE) 12:27:54 434.975-435.025
CINEMA 3 27 Mar 12:19:16 12:23:25 52° 296° (WNW) 12:27:41 145.822/145.860
TIGRISAT 27 Mar 12:20:53 12:24:26 24° 271° (W) 12:27:59 435.000
DOVE 4 27 Mar 12:22:50 12:26:38 34° 302° (WNW) 12:30:29 437.250
POPSAT HIP 1 27 Mar 12:22:56 12:26:47 33° 265° (W) 12:30:37 437.405
GOMX 1 27 Mar 12:23:06 12:26:40 27° 306° (NW) 12:30:14 467.674
DELFI C3 27 Mar 12:28:52 12:32:58 62° 293° (WNW) 12:37:02 145.870
HUMSAT D 27 Mar 12:34:00 12:38:14 71° 105° (ESE) 12:42:29 437.325/437.525
SEEDS 27 Mar 12:34:28 12:38:10 28° 306° (NW) 12:41:50 437.485
BUGSAT 1 27 Mar 12:34:47 12:38:33 32° 265° (W) 12:42:17 437.445
NANOSAT C BR1 27 Mar 12:34:52 12:38:31 27° 268° (W) 12:42:09 145.865
AAUSAT CUBESAT 2 27 Mar 12:35:10 12:38:59 32° 303° (WNW) 12:42:46 437.432
POLYITAN 1 27 Mar 12:37:02 12:40:38 26° 269° (W) 12:44:13 437.675
Cubesat XI-IV 27 Mar 12:39:34 12:41:39 12° 344° (NNW) 12:43:42 437.490
CUTE-I 27 Mar 12:40:07 12:42:10 12° 344° (NNW) 12:44:11 437.470
Oscar 11 27 Mar 12:42:48 12:47:01 46° 298° (WNW) 12:51:12 145.826/435.025
BEESAT 3 27 Mar 12:45:06 12:48:38 28° 131° (SE) 12:52:15 437.485
Gurwin Techsat 1B 27 Mar 12:45:11 12:49:24 25° 43° (NE) 12:53:39 435.225
UWE-3 27 Mar 12:46:39 12:50:52 56° 295° (WNW) 12:55:10 435.000/436.395/437.385
CUBEBUG 2 27 Mar 12:46:49 12:50:59 49° 297° (WNW) 12:55:15 437.445
Oscar 19 27 Mar 12:47:33 12:52:25 46° 58° (ENE) 12:57:21 437.125/150
FUNcube-1 27 Mar 12:48:32 12:52:46 62° 294° (WNW) 12:57:06 145.935
HO-68 27 Mar 12:48:34 12:55:26 48° 311° (NW) 13:02:14 435.675
VELOX 1 27 Mar 12:49:42 12:54:08 65° 105° (ESE) 12:58:33 145.980
ANTELSAT 27 Mar 12:51:17 12:53:57 16° 278° (W) 12:56:33 437.575/2403.000
AISAT 27 Mar 12:53:21 12:57:48 70° 106° (ESE) 13:02:12 437.250
CUBEBUG 1 27 Mar 12:56:41 13:00:54 44° 99° (E) 13:05:05 437.445
ZACube-1 27 Mar 13:00:34 13:04:44 51° 297° (WNW) 13:08:59 437.345
COMPASS 1 27 Mar 13:00:40 13:04:02 23° 310° (NW) 13:07:20 437.405
YUBILEINY 27 Mar 13:03:25 13:09:42 23° 68° (ENE) 13:16:14 435.215
BRITE-PL 27 Mar 13:03:30 13:05:48 14° 319° (NW) 13:08:02 437.365/2234.400
AIST 2 27 Mar 13:04:21 13:07:28 20° 124° (ESE) 13:10:39 435.215
TISAT 1 27 Mar 13:13:18 13:16:35 22° 89° (E) 13:19:56 437.305
ESTCUBE 1 27 Mar 13:14:58 13:19:31 65° 104° (ESE) 13:24:01 437.505/2401.250
SPROUT 27 Mar 13:15:00 13:18:36 26° 91° (E) 13:22:14 437.525
QB50P1 27 Mar 13:17:26 13:19:54 15° 278° (W) 13:22:16 145.935-145.965
DUCHIFAT 1 27 Mar 13:20:50 13:23:10 14° 278° (W) 13:25:23 145.980
CANX-2 27 Mar 13:23:54 13:26:22 15° 319° (NW) 13:28:46 2200.000
JAS-2 27 Mar 13:25:41 13:31:28 25° 26° (NNE) 13:37:32 435.910
HORYU 2 27 Mar 13:29:45 13:32:28 16° 39° (NE) 13:35:16 437.375
QB50P2 27 Mar 13:32:35 13:34:11 12° 281° (WNW) 13:35:37 145.880/145.840
CUTE 1.7 + AOD 2 27 Mar 13:38:25 13:40:32 13° 322° (NW) 13:42:36 437.475
BEESAT 2 27 Mar 13:42:29 13:46:32 51° 142° (SE) 13:50:37 435.950
ITUPSAT 1 27 Mar 13:44:17 13:46:18 13° 77° (ENE) 13:48:28 437.325
50 SAT 27 Mar 13:46:56 13:50:48 45° 298° (WNW) 13:54:39 437.505
ITAMSAT 1 27 Mar 13:47:46 13:52:49 52° 60° (ENE) 13:57:55 435.822/435.867
UKube-1 27 Mar 13:48:32 13:52:28 34° 305° (NW) 13:56:22 .
O/OREOS (USA 219) 27 Mar 13:49:43 13:54:22 80° 47° (NE) 13:58:56 437.305
DX 1 27 Mar 13:55:45 13:59:35 30° 307° (NW) 14:03:22 434.975-435.025
CINEMA 3 27 Mar 13:57:19 13:59:55 16° 317° (NW) 14:02:29 145.822/145.860
AIST 1 27 Mar 14:00:39 14:03:26 16° 44° (NE) 14:06:16
DOVE 4 27 Mar 14:02:01 14:03:25 11° 325° (NW) 14:04:46 437.250
AO-7 27 Mar 14:04:42 14:12:21 44° 38° (NE) 14:20:03 29.400- 29.500
DELFI C3 27 Mar 14:04:44 14:07:30 17° 315° (NW) 14:10:14 145.870
HUMSAT D 27 Mar 14:10:08 14:13:44 28° 306° (NW) 14:17:22 437.325/437.525
SEEDS 27 Mar 14:12:02 14:12:49 10° 328° (NNW) 14:13:32 437.485
AAUSAT CUBESAT 2 27 Mar 14:12:07 14:13:34 11° 325° (NW) 14:14:57 437.432
Cubesat XI-IV 27 Mar 14:18:08 14:19:43 11° 9° (N) 14:21:19 437.490
CUTE-I 27 Mar 14:18:40 14:20:12 11° 9° (N) 14:21:46 437.470
Oscar 11 27 Mar 14:19:48 14:22:21 15° 320° (NW) 14:24:50 145.826/435.025
BEESAT 3 27 Mar 14:22:10 14:26:20 81° 152° (SSE) 14:30:31 437.485
Gurwin Techsat 1B 27 Mar 14:23:25 14:28:43 70° 66° (ENE) 14:34:03 435.225
UWE-3 27 Mar 14:23:57 14:26:43 17° 316° (NW) 14:29:29 435.000/436.395/437.385
CUBEBUG 2 27 Mar 14:24:21 14:26:56 16° 318° (NW) 14:29:29 437.445
FUNcube-1 27 Mar 14:25:33 14:28:29 18° 315° (NW) 14:31:25 145.935
VELOX 1 27 Mar 14:26:34 14:30:31 32° 306° (NW) 14:34:25 145.980
Oscar 19 27 Mar 14:26:49 14:31:49 51° 260° (W) 14:36:52 437.125/150
AISAT 27 Mar 14:30:16 14:34:09 30° 307° (NW) 14:37:59 437.250
SWISSCUBE 27 Mar 14:32:06 14:36:09 27° 90° (E) 14:40:14 437.505
CUBEBUG 1 27 Mar 14:33:11 14:37:19 42° 300° (WNW) 14:41:24 437.445
BEESAT 27 Mar 14:35:28 14:39:31 27° 90° (E) 14:43:36 436.000
HO-68 27 Mar 14:36:11 14:41:50 26° 337° (NNW) 14:47:26 435.675
ZACube-1 27 Mar 14:37:43 14:40:22 16° 318° (NW) 14:42:57 437.345
AIST 2 27 Mar 14:41:11 14:45:27 61° 145° (SE) 14:49:43 435.215
TISAT 1 27 Mar 14:48:42 14:52:56 80° 291° (WNW) 14:57:08 437.305
SPROUT 27 Mar 14:50:50 14:55:08 70° 292° (WNW) 14:59:24 437.525
ESTCUBE 1 27 Mar 14:52:07 14:56:12 33° 306° (NW) 15:00:14 437.505/2401.250
YUBILEINY 27 Mar 14:56:20 15:04:57 62° 93° (E) 15:13:39 435.215
HORYU 2 27 Mar 15:04:01 15:08:18 48° 61° (ENE) 15:12:38 437.375
JAS-2 27 Mar 15:08:05 15:14:59 47° 51° (NE) 15:22:24 435.910
KKS-1 27 Mar 15:19:44 15:22:41 17° 85° (E) 15:25:43 437.445
BEESAT 2 27 Mar 15:20:28 15:24:39 73° 343° (NNW) 15:28:52 435.950
ITUPSAT 1 27 Mar 15:20:44 15:25:27 50° 100° (E) 15:30:09 437.325
50 SAT 27 Mar 15:22:50 15:24:56 14° 319° (NW) 15:26:57 437.505
UKube-1 27 Mar 15:25:42 15:27:35 13° 327° (NNW) 15:29:24 .
ITAMSAT 1 27 Mar 15:27:28 15:32:29 45° 261° (W) 15:37:32 435.822/435.867
O/OREOS (USA 219) 27 Mar 15:29:30 15:33:26 28° 249° (WSW) 15:37:18 437.305
DX 1 27 Mar 15:33:11 15:34:43 12° 329° (NNW) 15:36:11 434.975-435.025
AIST 1 27 Mar 15:37:47 15:42:07 57° 68° (ENE) 15:46:23
PCSat 27 Mar 15:46:17 15:49:31 16° 110° (ESE) 15:52:53 145.827
HUMSAT D 27 Mar 15:47:53 15:48:23 10° 328° (NNW) 15:48:48 437.325/437.525
Cubesat XI-IV 27 Mar 15:54:25 15:58:01 19° 34° (NE) 16:01:42 437.490
CUTE-I 27 Mar 15:54:54 15:58:30 19° 34° (NE) 16:02:09 437.470
AO-7 27 Mar 15:56:18 16:04:39 90° 64° (ENE) 16:13:01 29.400- 29.500
STARS 27 Mar 15:56:38 16:00:07 23° 89° (E) 16:03:39 437.465
BEESAT 3 27 Mar 16:00:27 16:04:35 62° 354° (N) 16:08:44 437.485
VELOX 1 27 Mar 16:04:14 16:05:59 12° 328° (NNW) 16:07:40 145.980
Gurwin Techsat 1B 27 Mar 16:04:20 16:09:09 33° 267° (W) 16:13:59 435.225
AISAT 27 Mar 16:08:04 16:09:37 12° 329° (NNW) 16:11:05 437.250
SWISSCUBE 27 Mar 16:09:43 16:14:34 78° 292° (WNW) 16:19:22 437.505
Oscar 19 27 Mar 16:09:56 16:12:31 13° 283° (WNW) 16:14:56 437.125/150
CUBEBUG 1 27 Mar 16:10:24 16:12:47 14° 322° (NW) 16:15:05 437.445
BEESAT 27 Mar 16:13:05 16:17:56 78° 292° (WNW) 16:22:44 436.000
AIST 2 27 Mar 16:19:47 16:24:06 69° 347° (NNW) 16:28:25 435.215
HO-68 27 Mar 16:22:31 16:27:32 21° 3° (N) 16:32:34 435.675
TISAT 1 27 Mar 16:25:02 16:28:15 21° 312° (NW) 16:31:25 437.305
SPROUT 27 Mar 16:27:31 16:30:39 20° 314° (NW) 16:33:43 437.525
ESTCUBE 1 27 Mar 16:29:58 16:31:58 13° 328° (NNW) 16:33:53 437.505/2401.250
MOZHAYETS 4 27 Mar 16:40:16 16:41:27 11° 75° (ENE) 16:42:48
HORYU 2 27 Mar 16:40:53 16:45:05 40° 262° (W) 16:49:20 437.375
JAS-2 27 Mar 16:52:29 16:59:44 76° 255° (WSW) 17:07:37 435.910
YUBILEINY 27 Mar 16:53:26 17:02:07 56° 300° (WNW) 17:10:50 435.215
KKS-1 27 Mar 16:55:40 17:00:09 75° 108° (ESE) 17:04:36 437.445
ITUPSAT 1 27 Mar 16:58:48 17:03:23 44° 302° (WNW) 17:07:56 437.325
BEESAT 2 27 Mar 16:58:57 17:03:08 63° 7° (N) 17:07:17 435.950
ITAMSAT 1 27 Mar 17:11:23 17:13:29 12° 285° (WNW) 17:15:23 435.822/435.867
AIST 1 27 Mar 17:15:45 17:19:35 30° 270° (W) 17:23:21
PCSat 27 Mar 17:26:41 17:31:55 51° 131° (SE) 17:37:13 145.827
GONETS M04 27 Mar 17:28:22 17:28:46 10° 48° (NE) 17:29:34
Cubesat XI-IV 27 Mar 17:32:01 17:37:08 46° 57° (ENE) 17:42:16 437.490
CUTE-I 27 Mar 17:32:29 17:37:34 46° 57° (ENE) 17:42:42 437.470
STARS 27 Mar 17:32:43 17:37:09 83° 291° (WNW) 17:41:34 437.465
BEESAT 3 27 Mar 17:38:47 17:42:58 76° 18° (NNE) 17:47:07 437.485
SWISSCUBE 27 Mar 17:48:01 17:51:53 24° 314° (NW) 17:55:42 437.505
AO-7 27 Mar 17:50:57 17:58:31 36° 268° (W) 18:06:01 29.400- 29.500
BEESAT 27 Mar 17:51:22 17:55:14 24° 314° (NW) 17:59:03 436.000
BRITE-PL 27 Mar 17:54:44 17:55:53 11° 34° (NE) 17:57:07 437.365/2234.400
AIST 2 27 Mar 17:58:43 18:03:03 67° 11° (N) 18:07:20 435.215
HO-68 27 Mar 18:07:29 18:13:20 28° 29° (NNE) 18:19:16 435.675
CANX-2 27 Mar 18:08:25 18:08:37 10° 31° (NNE) 18:08:55 2200.000
MOZHAYETS 4 27 Mar 18:15:29 18:19:59 45° 98° (E) 18:24:29
CUTE 1.7 + AOD 2 27 Mar 18:21:34 18:22:45 11° 33° (NNE) 18:24:00 437.475
CUBESAT XI-V 27 Mar 18:22:15 18:22:33 10° 73° (ENE) 18:23:04 437.345
AUBIESAT-1 27 Mar 18:26:50 18:30:31 22° 94° (E) 18:34:17 437.475
KKS-1 27 Mar 18:32:39 18:36:30 29° 308° (NW) 18:40:19 437.445
BEESAT 2 27 Mar 18:37:15 18:41:27 76° 210° (SSW) 18:45:36 435.950
ITUPSAT 1 27 Mar 18:37:19 18:40:19 16° 324° (NW) 18:43:14 437.325
JAS-2 27 Mar 18:39:59 18:46:08 28° 280° (W) 18:52:33 435.910
M-CUBED/EXP-1 PRIME 27 Mar 18:49:14 18:53:32 32° 101° (E) 18:57:54 437.505
DOVE 4 27 Mar 18:49:22 18:51:14 13° 38° (NE) 18:53:11 437.250
GOMX 1 27 Mar 18:50:06 18:52:38 16° 43° (NE) 18:55:11 467.674
SEEDS 27 Mar 18:52:32 18:54:42 14° 39° (NE) 18:56:58 437.485
AAUSAT CUBESAT 2 27 Mar 18:53:18 18:54:55 12° 36° (NE) 18:56:37 437.432
YUBILEINY 27 Mar 18:53:56 19:01:17 28° 330° (NNW) 19:08:34 435.215
RS-15 27 Mar 19:02:18 19:08:54 19° 97° (E) 19:16:03 29.354- 29.394
Oscar 11 27 Mar 19:04:18 19:05:22 11° 32° (NNE) 19:06:33 145.826/435.025
STARS 27 Mar 19:09:39 19:13:09 23° 312° (NW) 19:16:35 437.465
PCSat 27 Mar 19:09:51 19:15:19 72° 335° (NNW) 19:20:47 145.827
Cubesat XI-IV 27 Mar 19:11:58 19:17:15 54° 259° (WSW) 19:22:33 437.490
CUTE-I 27 Mar 19:12:25 19:17:41 54° 258° (WSW) 19:22:58 437.470
GONETS M04 27 Mar 19:15:31 19:22:37 30° 75° (ENE) 19:29:55
BEESAT 3 27 Mar 19:16:56 19:20:57 47° 220° (SW) 19:24:55 437.485
COMPASS 1 27 Mar 19:17:24 19:20:02 17° 43° (NE) 19:22:46 437.405
SWISSCUBE 27 Mar 19:26:59 19:28:21 11° 337° (NNW) 19:29:38 437.505
BRITE-PL 27 Mar 19:29:27 19:33:24 31° 56° (ENE) 19:37:12 437.365/2234.400
BEESAT 27 Mar 19:30:19 19:31:41 11° 337° (NNW) 19:32:58 436.000
AIST 2 27 Mar 19:37:27 19:41:44 66° 214° (SW) 19:45:58 435.215
CANX-2 27 Mar 19:39:47 19:43:22 27° 53° (NE) 19:47:00 2200.000
SO-50 27 Mar 19:50:49 19:51:28 10° 111° (ESE) 19:52:20 436.795
AO-7 27 Mar 19:51:50 19:54:28 11° 296° (WNW) 19:56:40 29.400- 29.500
MOZHAYETS 4 27 Mar 19:52:49 19:57:19 46° 299° (WNW) 20:01:45
HO-68 27 Mar 19:53:00 19:59:59 58° 54° (NE) 20:07:02 435.675
CUTE 1.7 + AOD 2 27 Mar 19:53:49 19:57:33 30° 55° (NE) 20:01:21 437.475
STRAND 1 27 Mar 19:56:26 20:00:51 28° 90° (E) 20:05:17 437.568
CUBESAT XI-V 27 Mar 19:56:56 20:01:24 42° 97° (E) 20:05:49 437.345
PRISM 27 Mar 20:00:10 20:04:04 34° 96° (E) 20:07:55 437.425
AUBIESAT-1 27 Mar 20:01:11 20:06:00 80° 116° (ESE) 20:10:52 437.475
UKube-1 27 Mar 20:08:16 20:10:42 15° 38° (NE) 20:13:13 .
KKS-1 27 Mar 20:10:33 20:11:58 11° 330° (NNW) 20:13:19 437.445
DX 1 27 Mar 20:15:27 20:18:10 17° 40° (NE) 20:20:56 434.975-435.025
BEESAT 2 27 Mar 20:15:40 20:19:10 26° 232° (SW) 20:22:35 435.950
DELFI C3 27 Mar 20:18:34 20:21:28 19° 47° (NE) 20:24:26 145.870
CINEMA 3 27 Mar 20:18:39 20:22:06 26° 53° (NE) 20:25:37 145.822/145.860
M-CUBED/EXP-1 PRIME 27 Mar 20:24:00 20:28:47 72° 301° (WNW) 20:33:39 437.505
DOVE 4 27 Mar 20:24:10 20:28:08 40° 60° (ENE) 20:32:04 437.250
SEEDS 27 Mar 20:25:38 20:29:38 43° 61° (ENE) 20:33:42 437.485
AAUSAT CUBESAT 2 27 Mar 20:25:44 20:29:33 35° 58° (ENE) 20:33:26 437.432
GOMX 1 27 Mar 20:25:50 20:30:05 53° 64° (ENE) 20:34:12 467.674
HUMSAT D 27 Mar 20:28:12 20:30:12 14° 39° (NE) 20:32:18 437.325/437.525
Oscar 11 27 Mar 20:36:40 20:40:24 29° 53° (NE) 20:44:11 145.826/435.025
UWE-3 27 Mar 20:42:51 20:46:11 24° 51° (NE) 20:49:36 435.000/436.395/437.385
CUBEBUG 2 27 Mar 20:43:36 20:47:04 26° 53° (NE) 20:50:37 437.445
FUNcube-1 27 Mar 20:43:57 20:47:08 22° 49° (NE) 20:50:23 145.935
VELOX 1 27 Mar 20:47:35 20:50:19 16° 40° (NE) 20:53:05 145.980
COMPASS 1 27 Mar 20:50:54 20:55:01 55° 65° (ENE) 20:59:12 437.405
AISAT 27 Mar 20:51:13 20:54:03 17° 41° (NE) 20:56:57 437.250
PCSat 27 Mar 20:53:58 20:59:20 53° 360° (N) 21:04:41 145.827
CUBEBUG 1 27 Mar 20:54:41 20:56:26 12° 34° (NE) 20:58:15 437.445
Cubesat XI-IV 27 Mar 20:55:36 20:58:41 15° 282° (WNW) 21:01:37 437.490
ZACube-1 27 Mar 20:55:45 20:59:09 25° 52° (NE) 21:02:38 437.345
BEESAT 3 27 Mar 20:55:59 20:58:12 14° 241° (WSW) 21:00:18 437.485
CUTE-I 27 Mar 20:55:59 20:59:05 15° 282° (WNW) 21:02:01 437.470
